Hourly Weather Roundup
Issued by NWS Central Illinois

Home | Current Version | Previous Version | Text Only | Print | Product List | Glossary On
Versions: 1 2 3 4 5 6 7 8 9 10 11 12 13 14 15 16 17 18 19 20 21 22 23 24 25 26 27 28 29 30 31 32 33 34 35 36 37 38 39 40 41 42 43 44 45 46 47 48 49 50
000
NZUS43 KILX 210210
HWRILX

Area Weather Roundup
National Weather Service Lincoln IL
800 PM CST TUE FEB 20 2018

NOTE:  "FAIR" indicates few or no clouds below 12,000 feet, with
       no sigificant weather and/or obstructions to visibility.


CITY           SKY/WX    TMP DP  RH WIND       PRES   REMARKS
Bloomington    MIX PCPN  35  34  96 N16       30.09S WCI  25
Champaign      HVY RAIN  44  44 100 NW17      30.07R FOG
Danville       HVY RAIN  48  48  98 NW14      30.04R
Decatur        HVY RAIN  39  39 100 NW14      30.09R FOG     WCI  31
Effingham      CLOUDY    58  56  91 NW10G24   30.02S
Flora          MOCLDY    67  59  76 S9        30.00F
Galesburg      CLOUDY    29  27  90 NW13      30.16R WCI  19
Jacksonville   MIX PCPN  32  31  94 N14       30.13S WCI  22
Lacon          LGT RAIN  32  31  98 NW10      30.13R WCI  24
Lawrenceville  FAIR      66  58  75 S10       30.04F
Litchfield     LGT SNOW  37  37  99 N14       30.09S WCI  28
$$


CITY           SKY/WX    TMP DP  RH WIND       PRES   REMARKS
Lincoln        LGT RAIN  37  36  99 NW9G17    30.12R WCI  30
Macomb         LGT SNOW  30  28  94 NW13      30.19R WCI  20
Mattoon        LGT RAIN  50  50 100 NW16      30.04R
Mt Carmel AP   MOCLDY    68  58  71 S12       30.03F
Olney-Noble AP FAIR      68  58  71 SE13      30.01F
Paris AP       CLOUDY    58  56  91 N8        30.04R
Peoria         LGT RAIN  33  30  88 NW8G21    30.13R WCI  26
Pontiac        DRIZZLE   36  35  98 NW14      30.12S WCI  27
Rantoul        LGT RAIN  43  43  99 N15       30.08R
Robinson       FAIR      66  56  70 S10G20    30.03F
Springfield    LGT RAIN  36  33  89 NW12      30.11R WCI  28
Taylorville    LGT RAIN  37  37  98 N15       30.09F WCI  28
$$

...REGIONAL REPORTS...


CITY           SKY/WX    TMP DP  RH WIND       PRES   REMARKS
Chicago O`Hare LGT RAIN  37  34  89 W7        30.05S WCI  32
Kankakee       LGT RAIN  38  38  98 NW10G16   30.11R WCI  31
Moline         CLOUDY    29  23  78 NW16      30.16R WCI  17
Mount Sterling RAIN      31  29  94 NW9       30.16R WCI  22
Mount Vernon   FAIR      69  60  73 S13G21    29.98F
Pittsfield     RAIN      33  32  96 NW14G21   30.15R WCI  23
Quincy         FRZ RAIN  29  27  92 NW18G24   30.18R FOG     WCI  16
Rockford       CLOUDY    31  26  82 NW16G25   30.11R WCI  20
$$


CITY           SKY/WX    TMP DP  RH WIND       PRES   REMARKS
Burlington     CLOUDY    27  22  81 NW12G21   30.18R WCI  17
Cedar Rapids   MOCLDY    22  16  78 NW21      30.19R WCI   6
Des Moines     FLURRIES  19  12  74 NW14G24   30.29R WCI   6
Kirksville     MOCLDY    24  21  88 NW15G22   30.22R WCI  11
Ottumwa        CLOUDY    23  17  78 NW18      30.23R WCI   9
St Louis       RAIN      39  38  96 NW14      30.11R WCI  31
$$


CITY           SKY/WX    TMP DP  RH WIND       PRES   REMARKS
Terre Haute    FAIR      68  56  65 S17G25    30.02S
Evansville     CLOUDY    70  59  68 S9        30.07F
Indianapolis   CLOUDY    69  54  58 S18       30.04S
Lafayette      LGT RAIN  56  56 100 CALM      30.04R
Madison        CLOUDY    29  23  78 NW9G21    30.10R WCI  20
Milwaukee      CLOUDY    37  32  82 W14G24    30.04R WCI  28
$$





USA.gov is the U.S. government's official web portal to all federal, state and local government web resources and services.